Starlink 31535

operational
NORAD ID: 59504 Int'l Des: 2024-071 Owner: SPXS Country: US Constellation: starlink
LEOCIRCULAR

About Starlink 31535

Description loading...

Live Position

Loading 3D Globe...

Upcoming Passes

Altitude History

Altitude vs Time

uPlot chart will show altitude changes over time

Two-Line Element Set

1 59504U 24071W 26035.45904134 .00003423 00000-0 13381-3 0 9994
2 59504 43.0013 175.1723 0002026 279.6996 80.3626 15.27594278103032
Epoch: Feb 4, 2026 • Age: 18 hours

Current Status

Altitude 494.4 km
Velocity 7.62 km/s
Sub-Earth Point -41.53°S, 154.63°W
Launch Date Apr 13, 2024
Age 1.8 years
Type internet

Technical Details

Classification Payload
Mass 730.00 kg
Dry Mass 700.00 kg
Total Mass 730.00 kg
Length 0.30 m
Diameter 4.10 m
Span 29.00 m
Shape Box + pan
Manufacturer SPXS
Bus Type Starlink V2M
Phase Status In Orbit
Owner/State SPXS/US

Large Constellations

Loading constellations...